sat.trackr.live / text

‹ back to catalog

STARLINK-11254 [DTC]

NORAD 60731 · 2024-152M

PAYLOAD ACTIVE UNKNOWN

§ Identity

Operator
Country
US
Launch date
2024-08-28
Launch site
AFETR
Launch vehicle
Mass (kg)
RCS (m²)

Purposes: comms

External: N2YO · Heavens-Above · Gunter

§ Orbital elements

Epoch: 2026-09-21T02:51:16.310592Z

Period
91.74 min
Inclination
53.1614°
Eccentricity
0.0001274
Mean motion
15.69695180 rev/d
Perigee alt
358.9 km
Apogee alt
360.6 km
Semi-major
6,737.9 km
B*
1.6781e-5
RAAN
232.5504°
Arg perigee
70.9320°
Mean anomaly
289.1836°
Rev number
11,954

§ Raw data

STARLINK-11254 [DTC]1 60731U 24152M   26264.11893878  .00001443  00000+0  16781-4 0  99942 60731  53.1614 232.5504 0001274  70.9320 289.1836 15.69695180119542

JSON: /api/v1/satellites/60731 · /tle

For live sub-satellite position, see the globe view (requires WebGL).

§ Visibility from observer

Set your observer location to see the next 7 days of passes ≥ 10°. The values pass through the URL so the page stays shareable.

No JS? Fill the form by hand. The geolocation button needs JavaScript.